Terug naar catalogus

METEOR 2-5 DEB

ActiefPO
NORAD 35506·DEBRIS·🇷🇺 Russia

Gelanceerd Oct 31, 1979 vanaf Plesetsk Cosmodrome

Loading…

Volgende Passages (komende 24 uur)

TLE

VersSource: Space-Track

Epoch: Sep 11, 2026, 08:59 UTC

1 35506U 79095Z   26254.37450405  .00013945  00000-0  20265-2 0  9995
2 35506  81.1807 280.5234 0011132  97.0250 263.2224 14.75837511302324

Volg METEOR 2-5 DEB in realtime met AllMySat

Download on the App Store